Погода в Хормалах

Россия / Чувашская Республика     55˚17′50″N   47˚15′34″E
темп.,
°C
ветер,
м/с
пор.,
м/с
влажн.,
%
обл.,
%
осадки,
мм/ч
давл.,
гПа
погр.,
м
17 января, вс
вс1700:00−14˚зюз4993100 0.1 1000382
03:00−15˚зюз51093100 0.1 1002365
06:00−16˚зюз5109399 0.1 1003412
09:00−16˚з4109499 0.1 1006368
12:00−16˚зсз479099 0.1 1009567
15:00−17˚зсз3694100 0.1 1012236
18:00−22˚зсз239998 0.0 101420
21:00−24˚з229894 0.0 101720
18 января, пн
пн1800:00−26˚сз119983 0.0 101819
03:00−27˚з119970 0.0 101920
06:00−27˚юз119920 0.0 101919
09:00−26˚вюв009743 0.0 102019
12:00−21˚юв119384 0.0 1020144
15:00−23˚в119689 0.0 101920
18:00−24˚всв1196100 0.0 101920
21:00−23˚св2295100 0.0 101823
19 января, вт
вт1900:00−22˚всв1296100 0.0 101878
03:00−21˚св2396100 0.0 1017157
06:00−21˚ссв2396100 0.1 1016167
09:00−20˚ссв2498100 0.3 1016191
12:00−19˚ссв2497100 0.6 1015241
15:00−18˚с2397100 1.3 1013239
18:00−19˚с2498100 0.7 1013221
21:00−18˚сз2498100 1.4 1013209
20 января, ср
ср2000:00−18˚сз3597100 0.6 1013231
03:00−18˚зсз3597100 1.1 1013252
06:00−19˚зсз3697100 0.4 1013273
09:00−20˚зсз3697100 0.7 1014263
12:00−19˚зсз4796100 0.2 1015280
15:00−19˚з379699 0.2 1015253
18:00−19˚з489796 0.1 1016221
21:00−17˚з489595 0.1 1017254
21 января, чт
чт2100:00−27˚з33980 0.0 102241
03:00−25˚з3510027 0.0 102384
06:00−22˚з489994 0.0 1022161
09:00−19˚з499797 0.1 1022239
12:00−16˚зюз51095100 0.0 1021270
15:00−15˚зюз51094100 0.1 1020305
18:00−15˚зюз51194100 0.0 1020265
21:00−14˚юз5992100 0.0 1019260